Weather reports worldwide

Advertisment
Estaca de Bares, Spain (8004): temperature & dewpoint: 20.05.2019 02:00:00 - 26.05.2019 02:00:00 (CEST)Estaca de Bares, Spain (8004): wind speed & gusts: 20.05.2019 02:00:00 - 26.05.2019 02:00:00 (CEST)Estaca de Bares, Spain (8004): wind direction: 20.05.2019 02:00:00 - 26.05.2019 02:00:00 (CEST)Estaca de Bares, Spain (8004): reduced air pressure: 20.05.2019 02:00:00 - 26.05.2019 02:00:00 (CEST)Estaca de Bares, Spain (8004): visibility: 20.05.2019 02:00:00 - 26.05.2019 02:00:00 (CEST)Estaca de Bares, Spain (8004): sunshine duration: 20.05.2019 02:00:00 - 26.05.2019 02:00:00 (CEST)Estaca de Bares, Spain (8004): precipitation: 20.05.2019 02:00:00 - 26.05.2019 02:00:00 (CEST)
Date & Time tt [°C] td [°C] ff [km/h] ff [kn] fx [km/h] fx [kn] dd ppp [hPa] vv [km] sd [min] rr [mm]
26.05.2019 02:00:00 - - - - - - - - - - -
26.05.2019 01:00:00 13,5 10,2 10 5 14 7 SE 1024,9 20 0 0,0
26.05.2019 00:00:00 13,9 10,2 6 3 12 7 E 1025,3 20 0 0,0
25.05.2019 23:00:00 13,6 9,8 11 6 13 7 ESE 1025,0 20 0 0,0
25.05.2019 22:00:00 14,0 9,4 11 6 15 8 ESE 1024,6 20 44 0,0
25.05.2019 21:00:00 15,9 10,2 8 4 15 8 E 1024,4 20 60 0,0
25.05.2019 20:00:00 15,4 10,2 8 4 18 10 NE 1024,3 20 60 -
25.05.2019 19:00:00 16,4 10,5 9 5 19 10 NE 1024,3 20 60 0,0
25.05.2019 18:00:00 16,5 10,8 11 6 21 11 NE 1024,2 20 60 0,0
25.05.2019 17:00:00 16,2 10,9 13 7 21 11 ENE 1024,2 20 60 0,0
25.05.2019 16:00:00 16,2 10,3 16 8 21 11 ENE 1024,6 20 60 0,0
25.05.2019 15:00:00 17,0 10,4 10 5 21 11 NE 1024,8 20 60 0,0
25.05.2019 14:00:00 17,1 10,4 16 9 23 12 E 1024,9 20 60 -
25.05.2019 13:00:00 17,2 11,0 14 8 19 10 E 1024,9 20 60 0,0
25.05.2019 12:00:00 16,3 11,0 12 6 19 11 ENE 1025,1 20 60 0,0
25.05.2019 11:00:00 15,7 10,6 14 8 23 12 ENE 1024,9 20 60 0,0
25.05.2019 10:00:00 14,9 11,1 16 9 26 14 ENE 1024,6 20 45 0,0
25.05.2019 09:00:00 14,4 10,8 10 6 21 11 NE 1024,3 20 42 0,0
25.05.2019 08:00:00 13,7 9,9 12 7 26 14 NNE 1024,0 20 10 -
25.05.2019 07:00:00 13,2 9,7 12 7 21 12 NNE 1023,9 20 0 0,0
25.05.2019 06:00:00 13,2 10,4 13 7 19 10 NNE 1023,7 20 0 0,0
25.05.2019 05:00:00 13,1 10,4 8 4 17 9 NE 1023,8 20 0 0,0
25.05.2019 04:00:00 13,1 10,4 9 5 24 13 NNE 1023,9 20 0 0,0
25.05.2019 03:00:00 13,3 10,6 8 5 23 13 N 1024,1 20 0 0,0
25.05.2019 02:00:00 13,4 11,2 11 6 23 12 NE 1024,1 20 0 -
25.05.2019 01:00:00 13,5 11,2 8 4 26 14 NE 1024,4 20 0 0,0
25.05.2019 00:00:00 13,5 11,2 14 8 33 18 NE 1024,2 20 0 0,0
24.05.2019 23:00:00 13,7 11,4 13 7 33 18 NE 1023,8 20 0 0,0
24.05.2019 22:00:00 14,0 11,1 13 7 29 16 NNE 1023,2 20 11 0,0
24.05.2019 21:00:00 15,0 11,8 13 7 29 16 NNE 1023,0 20 10 0,0
24.05.2019 20:00:00 14,8 11,3 14 8 33 18 NNE 1022,9 20 12 -
24.05.2019 19:00:00 15,5 12,1 14 8 37 20 NNE 1022,6 20 60 0,0
24.05.2019 18:00:00 16,6 12,7 14 7 31 17 N 1022,6 20 60 0,0
24.05.2019 17:00:00 16,9 12,0 15 8 29 16 NNE 1022,7 20 60 0,0
24.05.2019 16:00:00 16,5 12,6 10 6 23 12 NNE 1022,6 20 33 0,0
24.05.2019 15:00:00 17,1 12,4 10 5 21 11 N 1022,9 20 49 0,0
24.05.2019 14:00:00 17,9 13,4 8 5 18 10 N 1022,7 20 17 -
24.05.2019 13:00:00 16,0 12,2 12 6 24 13 WNW 1022,7 20 4 0,0
24.05.2019 12:00:00 14,4 10,8 18 10 29 16 WNW 1022,3 20 0 0,0
24.05.2019 11:00:00 14,4 10,6 9 5 26 14 NW 1022,2 20 12 0,0
24.05.2019 10:00:00 13,9 10,5 11 6 25 14 NW 1022,2 20 0 0,0
24.05.2019 09:00:00 13,5 10,9 11 6 23 12 NNW 1021,9 20 0 0,0
24.05.2019 08:00:00 13,1 11,0 18 10 23 12 W 1021,3 20 0 -
24.05.2019 07:00:00 12,7 10,4 18 10 24 13 W 1021,0 20 0 0,0
24.05.2019 06:00:00 12,9 10,6 14 8 18 10 W 1020,6 20 0 0,0
24.05.2019 05:00:00 13,0 10,8 13 7 21 11 W 1020,4 20 0 0,0
24.05.2019 04:00:00 12,9 10,4 14 8 19 11 W 1020,5 20 0 0,0
24.05.2019 03:00:00 12,7 10,0 13 7 19 11 W 1021,0 20 0 0,0
24.05.2019 02:00:00 12,8 10,2 16 8 22 12 W 1021,2 20 0 -
24.05.2019 01:00:00 13,3 10,6 18 10 23 12 W 1021,3 20 0 0,0
24.05.2019 00:00:00 13,3 10,5 22 12 29 15 W 1021,3 20 0 0,0
23.05.2019 23:00:00 13,5 10,5 26 14 34 18 W 1021,3 20 0 0,0
23.05.2019 22:00:00 13,8 10,4 26 14 34 18 W 1020,5 20 12 0,0
23.05.2019 21:00:00 15,2 10,4 27 15 37 20 W 1020,2 20 60 0,0
23.05.2019 20:00:00 16,1 10,4 33 18 42 23 W 1020,2 20 60 -
23.05.2019 19:00:00 16,8 10,4 33 18 43 23 W 1019,9 20 51 0,0
23.05.2019 18:00:00 16,1 10,6 35 19 48 26 W 1020,0 20 49 0,0
23.05.2019 17:00:00 16,3 10,6 44 24 52 28 W 1019,5 20 58 0,0
23.05.2019 16:00:00 16,1 10,4 46 25 63 34 W 1018,7 20 60 0,0
23.05.2019 15:00:00 16,4 10,6 54 29 59 32 W 1018,5 20 59 0,0
23.05.2019 14:00:00 16,2 10,8 46 25 53 29 W 1018,5 20 43 -
23.05.2019 13:00:00 15,9 10,9 41 22 57 31 W 1018,7 20 9 0,0
23.05.2019 12:00:00 14,9 11,1 47 26 57 31 W 1018,4 20 1 0,0
23.05.2019 11:00:00 14,3 11,8 42 23 52 28 W 1018,2 20 0 0,0
23.05.2019 10:00:00 14,8 11,3 34 18 45 24 W 1017,8 20 0 0,0
23.05.2019 09:00:00 15,1 10,6 24 13 39 21 W 1017,2 20 0 0,0
23.05.2019 08:00:00 15,0 10,4 21 12 32 17 WSW 1016,6 20 0 -
23.05.2019 07:00:00 14,4 10,0 27 15 37 20 WSW 1016,4 20 0 0,0
23.05.2019 06:00:00 13,8 9,7 27 15 36 19 WSW 1016,6 20 0 0,0
23.05.2019 05:00:00 13,6 9,7 30 16 39 21 W 1016,6 20 0 0,0
23.05.2019 04:00:00 13,7 9,7 35 19 48 26 W 1016,4 20 0 0,0
23.05.2019 03:00:00 13,9 8,3 32 17 44 24 WSW 1016,5 20 0 0,0
23.05.2019 02:00:00 13,9 7,1 29 16 38 21 W 1017,0 20 0 -
23.05.2019 01:00:00 14,1 9,3 29 16 34 18 W 1017,0 20 0 0,0
23.05.2019 00:00:00 14,1 9,2 24 13 30 16 W 1017,1 20 0 0,0
22.05.2019 23:00:00 14,4 9,2 13 7 29 16 WSW 1017,1 20 0 0,0
22.05.2019 22:00:00 14,8 10,6 14 8 22 12 W 1016,8 20 20 0,0
22.05.2019 21:00:00 17,5 10,2 15 8 19 10 W 1016,4 20 60 0,0
22.05.2019 20:00:00 16,1 12,1 7 4 24 13 ESE 1016,4 20 60 -
22.05.2019 19:00:00 15,6 12,0 19 11 26 14 ESE 1016,1 20 60 0,0
22.05.2019 18:00:00 15,8 11,8 21 11 29 15 ESE 1016,1 20 60 0,0
22.05.2019 17:00:00 16,3 11,9 20 11 29 16 E 1016,1 20 60 0,0
22.05.2019 16:00:00 16,0 11,6 21 12 33 18 E 1016,3 20 60 0,0
22.05.2019 15:00:00 15,6 11,3 21 11 30 16 E 1016,5 20 60 0,0
22.05.2019 14:00:00 15,5 11,4 21 12 34 19 ESE 1016,7 20 46 -
22.05.2019 13:00:00 15,0 11,0 24 13 32 17 ESE 1016,6 20 59 0,0
22.05.2019 12:00:00 14,8 10,8 22 12 37 20 E 1016,3 20 49 0,0
22.05.2019 11:00:00 14,4 10,4 26 14 34 19 ESE 1016,6 20 60 0,0
22.05.2019 10:00:00 13,3 9,9 24 13 35 19 ESE 1016,7 20 12 0,0
22.05.2019 09:00:00 13,1 10,3 17 9 26 14 SE 1016,6 20 0 0,0
22.05.2019 08:00:00 12,8 10,2 18 10 30 16 ESE 1016,5 20 0 -
22.05.2019 07:00:00 12,7 10,3 22 12 39 21 ESE 1016,2 20 0 0,0
22.05.2019 06:00:00 13,0 10,5 21 12 36 19 E 1016,4 20 0 0,0
22.05.2019 05:00:00 13,2 10,4 24 13 44 24 ESE 1016,8 20 0 0,0
22.05.2019 04:00:00 13,2 10,0 31 17 45 24 ESE 1017,0 20 0 0,0
22.05.2019 03:00:00 13,1 9,6 34 18 49 27 ESE 1017,4 20 0 0,0
22.05.2019 02:00:00 13,2 10,2 36 20 50 27 ESE 1017,6 20 0 -
22.05.2019 01:00:00 13,3 10,5 39 21 50 27 ESE 1017,7 20 0 0,0
22.05.2019 00:00:00 13,3 10,5 38 20 50 27 ESE 1017,9 20 0 0,0
21.05.2019 23:00:00 13,3 10,3 39 21 56 30 ESE 1017,8 20 0 0,0
21.05.2019 22:00:00 13,4 10,0 42 23 54 29 ESE 1017,5 20 36 0,0
21.05.2019 21:00:00 14,1 10,3 37 20 53 29 ESE 1017,5 20 53 0,0
21.05.2019 20:00:00 14,6 10,6 37 20 49 27 ESE 1017,2 20 60 -
21.05.2019 19:00:00 15,2 10,8 31 17 49 26 ESE 1017,2 20 60 0,0
21.05.2019 18:00:00 15,4 10,8 32 18 48 26 ESE 1017,1 20 60 0,0
21.05.2019 17:00:00 15,6 11,0 33 18 50 27 ESE 1017,3 20 60 0,0
21.05.2019 16:00:00 16,0 11,1 29 16 45 25 ESE 1017,3 20 60 0,0
21.05.2019 15:00:00 16,2 11,1 31 17 49 26 E 1017,3 20 60 0,0
21.05.2019 14:00:00 15,7 10,9 32 17 45 24 ESE 1017,2 20 60 -
21.05.2019 13:00:00 15,9 10,9 25 14 44 24 ESE 1017,2 20 60 0,0
21.05.2019 12:00:00 15,7 11,1 24 13 42 23 E 1017,0 20 60 0,0
21.05.2019 11:00:00 15,4 11,0 22 12 37 20 E 1016,9 20 60 0,0
21.05.2019 10:00:00 14,6 10,8 22 12 36 20 E 1016,7 20 43 0,0
21.05.2019 09:00:00 13,3 10,0 22 12 31 17 ESE 1016,4 20 21 0,0
21.05.2019 08:00:00 12,5 9,7 22 12 32 17 ESE 1015,8 20 0 -
21.05.2019 07:00:00 12,4 9,4 21 12 33 18 ESE 1015,5 20 0 0,0
21.05.2019 06:00:00 12,5 9,3 19 10 30 16 ESE 1015,3 20 0 0,0
21.05.2019 05:00:00 12,6 9,4 22 12 32 17 ESE 1015,0 20 0 0,0
21.05.2019 04:00:00 12,5 9,2 22 12 30 16 ESE 1014,9 20 0 0,0
21.05.2019 03:00:00 12,6 9,0 21 11 32 18 SE 1015,0 20 0 0,0
21.05.2019 02:00:00 12,8 8,7 21 12 32 17 ESE 1015,4 20 0 -
21.05.2019 01:00:00 12,9 8,5 23 12 34 18 ESE 1015,5 20 0 0,0
21.05.2019 00:00:00 12,9 8,4 25 14 38 20 ESE 1015,5 20 0 0,0
20.05.2019 23:00:00 13,1 8,9 28 15 37 20 ESE 1015,3 20 0 0,0
20.05.2019 22:00:00 13,1 8,5 31 17 40 22 ESE 1014,5 20 0 0,0
20.05.2019 21:00:00 13,1 8,0 27 15 38 20 ESE 1014,6 20 0 0,0
20.05.2019 20:00:00 13,4 7,6 26 14 34 18 ESE 1014,4 20 24 -
20.05.2019 19:00:00 14,0 7,7 23 12 34 19 ESE 1014,3 20 2 0,0
20.05.2019 18:00:00 13,8 7,8 21 11 32 18 ESE 1014,2 20 21 0,0
20.05.2019 17:00:00 14,1 8,3 22 12 33 18 E 1014,2 20 4 0,0
20.05.2019 16:00:00 15,3 8,5 19 10 30 16 E 1014,3 20 60 0,0
20.05.2019 15:00:00 15,4 8,7 20 11 34 18 E 1014,4 20 60 0,0
20.05.2019 14:00:00 15,0 8,3 22 12 32 17 E 1014,7 20 60 -
20.05.2019 13:00:00 15,2 8,3 19 10 32 18 E 1014,7 20 60 0,0
20.05.2019 12:00:00 15,0 9,6 17 9 26 14 E 1014,7 20 60 0,0
20.05.2019 11:00:00 13,2 8,5 14 8 19 11 E 1014,9 20 41 0,0
20.05.2019 10:00:00 13,7 8,9 11 6 16 9 ESE 1014,7 20 60 0,0
20.05.2019 09:00:00 12,3 8,5 3 1 8 4 NNE 1014,6 20 60 0,0
20.05.2019 08:00:00 11,5 8,1 2 1 7 4 N 1014,2 20 42 -
20.05.2019 07:00:00 10,8 7,7 3 2 14 7 NNE 1014,1 20 0 0,0
20.05.2019 06:00:00 10,6 7,7 6 4 9 5 E 1013,9 20 0 0,0
20.05.2019 05:00:00 10,7 7,4 4 2 12 7 WSW 1014,3 20 0 0,0
20.05.2019 04:00:00 10,7 7,1 9 5 16 9 ESE 1014,4 20 0 0,0
20.05.2019 03:00:00 10,8 7,1 13 7 16 9 ESE 1014,8 20 0 0,0
20.05.2019 02:00:00 11,3 7,4 13 7 21 11 E 1015,3 20 0 -

tt = temperature
td = dewpoint
ff = wind speed
fx = gusts
dd = wind direction
ppp = reduced air pressure
vv = visibility
sd = sunshine duration
rr = precipitation

Next stations